GEFSMW_prec_meanprecacc_258.txt.gz
Total_Precipitation_Accumulation
0.47 0.45 0.48 0.54 0.55 0.58 0.60 0.59 0.56 0.64 0.67 0.71 0.84 1.06 1.35 1.45 1.55 1.47 1.27 1.21 1.32 1.58 1.83 1.80 1.89 1.96 1.87 1.83 1.84 2.07 2.02 1.74 1.56 1.66 1.51 1.32 1.19 1.35 1.41 1.37 1.46 1.53 1.63
0.38 0.34 0.35 0.39 0.42 0.46 0.52 0.53 0.52 0.59 0.64 0.70 0.86 1.01 1.17 1.18 1.35 1.47 1.43 1.35 1.35 1.50 1.64 1.92 2.06 2.04 2.14 2.25 2.24 2.61 2.75 2.26 1.84 1.92 2.16 1.88 1.68 1.51 1.39 1.43 1.48 1.61 1.81
0.36 0.33 0.32 0.33 0.34 0.36 0.36 0.38 0.42 0.50 0.61 0.75 0.95 1.16 1.35 1.43 1.50 1.42 1.50 1.51 1.43 1.47 1.59 1.74 1.89 1.93 2.05 2.22 2.33 2.66 3.20 2.96 2.32 2.13 2.51 2.25 2.05 1.95 1.65 1.47 1.46 1.54 1.82
0.34 0.39 0.35 0.38 0.36 0.33 0.30 0.33 0.42 0.55 0.73 0.93 1.15 1.38 1.58 1.62 1.52 1.55 1.58 1.47 1.39 1.36 1.45 1.59 1.72 1.84 1.88 2.04 2.13 2.27 2.83 3.23 2.91 2.60 2.29 1.98 1.93 2.10 2.07 1.72 1.56 1.57 1.71
0.34 0.35 0.34 0.38 0.38 0.36 0.38 0.44 0.63 0.85 1.08 1.28 1.53 1.80 1.77 1.66 1.57 1.56 1.55 1.50 1.49 1.46 1.45 1.59 1.67 1.69 1.76 1.88 2.22 2.49 2.78 3.02 3.01 2.97 2.77 2.49 2.21 1.89 2.13 2.15 1.85 1.72 1.69
0.36 0.43 0.49 0.58 0.63 0.65 0.79 0.97 1.23 1.41 1.49 1.60 1.75 1.86 1.80 1.80 1.75 1.56 1.49 1.48 1.53 1.58 1.61 1.65 1.66 1.65 1.69 1.81 2.05 2.35 2.58 2.89 3.09 3.03 2.84 2.72 2.60 2.37 2.27 2.13 1.99 1.99 1.83
0.43 0.57 0.73 0.86 0.99 1.13 1.28 1.42 1.57 1.70 1.65 1.62 1.67 1.71 1.69 1.66 1.64 1.57 1.50 1.44 1.46 1.51 1.53 1.61 1.73 1.80 1.85 1.97 2.15 2.30 2.24 2.44 2.83 2.86 2.72 2.64 2.46 2.42 2.48 2.39 2.09 1.96 1.68
0.61 0.73 0.81 0.92 1.09 1.26 1.34 1.34 1.43 1.53 1.50 1.48 1.46 1.44 1.49 1.49 1.43 1.34 1.31 1.36 1.45 1.45 1.39 1.42 1.51 1.65 1.83 1.89 1.95 2.00 1.96 2.06 2.31 2.42 2.60 2.70 2.47 2.37 2.28 2.24 2.29 2.07 1.77
0.88 1.03 1.14 1.24 1.28 1.34 1.42 1.34 1.32 1.38 1.39 1.34 1.28 1.27 1.30 1.35 1.34 1.26 1.26 1.25 1.26 1.19 1.11 1.11 1.17 1.25 1.32 1.42 1.58 1.68 1.79 1.83 1.96 2.11 2.24 2.40 2.53 2.46 2.27 2.21 2.19 2.16 1.96
1.12 1.41 1.65 1.82 1.64 1.38 1.30 1.29 1.23 1.23 1.33 1.31 1.25 1.20 1.26 1.26 1.24 1.24 1.20 1.20 1.20 1.11 1.02 0.98 0.96 0.95 0.92 0.96 1.16 1.37 1.49 1.57 1.72 1.91 2.05 2.09 2.17 2.35 2.32 2.14 2.12 2.04 1.93
1.26 1.41 1.61 1.78 1.69 1.38 1.16 1.20 1.25 1.24 1.24 1.24 1.25 1.21 1.17 1.08 1.07 1.09 1.08 1.07 1.06 1.10 1.07 0.97 0.92 1.02 1.03 0.98 1.04 1.11 1.18 1.25 1.38 1.52 1.65 1.80 2.06 2.35 2.38 2.32 2.19 2.07 1.94
1.16 1.15 1.21 1.28 1.31 1.17 0.98 0.95 1.11 1.19 1.17 1.15 1.18 1.15 1.05 0.98 0.95 0.93 0.88 0.78 0.74 0.76 0.86 0.95 0.89 0.87 0.92 0.94 0.99 1.02 1.06 1.11 1.21 1.31 1.44 1.61 1.88 2.21 2.42 2.51 2.40 2.23 2.09
1.14 1.11 1.03 0.98 1.00 0.96 0.88 0.85 0.98 1.14 1.20 1.19 1.07 0.96 0.91 0.87 0.87 0.79 0.74 0.70 0.62 0.60 0.64 0.73 0.73 0.82 0.91 0.94 0.98 0.98 1.01 1.05 1.13 1.27 1.33 1.38 1.57 1.76 1.95 2.14 2.28 2.26 2.23
0.84 0.79 0.74 0.69 0.69 0.72 0.75 0.80 0.91 1.00 1.13 1.26 1.17 1.04 0.95 0.89 0.84 0.78 0.74 0.69 0.65 0.66 0.71 0.82 0.85 0.80 0.79 0.84 0.95 0.99 0.95 0.94 0.96 1.05 1.15 1.23 1.27 1.44 1.57 1.68 1.88 2.10 2.34
0.44 0.43 0.44 0.43 0.43 0.43 0.44 0.52 0.66 0.82 1.00 1.24 1.24 1.11 1.05 0.98 0.84 0.77 0.77 0.73 0.75 0.73 0.74 0.83 0.93 0.98 0.92 0.90 0.98 0.95 0.94 0.94 0.92 0.96 0.96 1.03 1.05 1.12 1.30 1.34 1.56 1.89 2.17
0.30 0.30 0.29 0.27 0.24 0.24 0.25 0.27 0.38 0.56 0.72 0.90 0.99 0.98 0.89 0.78 0.74 0.74 0.70 0.66 0.65 0.61 0.59 0.62 0.69 0.77 0.83 1.07 1.02 0.84 0.79 0.84 0.89 0.94 0.93 0.96 0.90 0.88 0.94 1.07 1.19 1.49 1.71
0.25 0.25 0.24 0.24 0.22 0.22 0.22 0.24 0.31 0.39 0.48 0.63 0.74 0.75 0.69 0.62 0.60 0.63 0.60 0.54 0.49 0.50 0.47 0.47 0.47 0.53 0.70 0.81 0.65 0.62 0.65 0.78 0.88 0.95 0.99 0.97 0.90 0.93 0.94 0.95 0.96 1.03 1.21
0.23 0.23 0.23 0.21 0.19 0.19 0.19 0.22 0.25 0.28 0.32 0.39 0.47 0.48 0.47 0.48 0.49 0.50 0.48 0.46 0.43 0.42 0.41 0.46 0.52 0.54 0.59 0.67 0.56 0.52 0.60 0.80 0.92 0.92 0.88 0.95 0.97 0.99 1.04 0.97 1.03 0.98 0.96
0.15 0.14 0.14 0.12 0.11 0.11 0.12 0.13 0.16 0.19 0.19 0.21 0.25 0.27 0.29 0.35 0.41 0.42 0.45 0.52 0.52 0.49 0.49 0.59 0.65 0.59 0.54 0.59 0.58 0.61 0.73 0.87 0.95 0.91 0.92 0.99 1.03 1.16 1.21 1.10 1.15 1.11 1.08
0.08 0.08 0.07 0.06 0.06 0.07 0.08 0.08 0.10 0.12 0.13 0.13 0.15 0.19 0.21 0.26 0.34 0.40 0.42 0.41 0.40 0.45 0.52 0.53 0.49 0.49 0.57 0.64 0.61 0.70 0.87 1.00 1.10 1.06 1.05 1.24 1.20 1.19 1.13 1.09 1.23 1.19 1.06
0.06 0.06 0.06 0.06 0.07 0.07 0.08 0.07 0.07 0.09 0.12 0.15 0.17 0.20 0.22 0.25 0.29 0.28 0.25 0.28 0.31 0.32 0.32 0.33 0.38 0.44 0.58 0.63 0.65 0.84 0.92 0.99 1.14 1.16 1.13 1.08 1.21 1.15 1.07 1.05 1.10 1.23 1.11
0.05 0.06 0.07 0.09 0.08 0.08 0.09 0.09 0.10 0.12 0.14 0.16 0.17 0.18 0.17 0.18 0.19 0.20 0.20 0.21 0.24 0.27 0.29 0.31 0.34 0.40 0.43 0.50 0.57 0.70 0.83 0.91 1.07 1.16 1.06 0.96 1.18 1.13 1.03 0.94 0.96 1.11 1.18
0.07 0.08 0.10 0.15 0.16 0.12 0.10 0.11 0.13 0.15 0.16 0.16 0.16 0.18 0.18 0.18 0.15 0.14 0.18 0.23 0.24 0.26 0.27 0.30 0.35 0.43 0.45 0.45 0.53 0.58 0.66 0.79 0.97 1.03 1.04 1.05 1.07 0.98 0.92 1.01 1.04 1.07 1.10
0.07 0.11 0.15 0.18 0.22 0.18 0.14 0.13 0.13 0.14 0.15 0.14 0.16 0.18 0.18 0.19 0.16 0.15 0.16 0.18 0.20 0.22 0.26 0.31 0.36 0.41 0.45 0.48 0.58 0.68 0.69 0.77 0.85 0.84 0.87 0.91 0.87 0.85 0.88 0.94 1.03 1.08 1.14
0.05 0.09 0.16 0.18 0.18 0.18 0.18 0.16 0.15 0.13 0.13 0.14 0.16 0.16 0.19 0.21 0.17 0.14 0.14 0.16 0.18 0.24 0.30 0.33 0.36 0.36 0.37 0.44 0.57 0.72 0.81 0.92 1.01 1.01 0.88 0.87 0.85 0.83 0.83 0.87 0.92 0.97 0.97
0.06 0.09 0.11 0.14 0.15 0.15 0.17 0.15 0.15 0.14 0.13 0.14 0.15 0.15 0.15 0.15 0.17 0.17 0.15 0.15 0.17 0.21 0.26 0.29 0.31 0.34 0.38 0.38 0.41 0.51 0.67 0.85 1.10 1.33 1.26 1.23 1.15 1.04 0.94 0.88 0.84 0.81 0.83

GEFSMW_prec_meanprecacc_264.txt.gz
Total_Precipitation_Accumulation
0.48 0.45 0.48 0.54 0.55 0.58 0.60 0.59 0.57 0.66 0.68 0.72 0.85 1.07 1.36 1.47 1.56 1.47 1.28 1.22 1.33 1.59 1.84 1.81 1.90 1.97 1.88 1.84 1.85 2.08 2.02 1.74 1.57 1.67 1.53 1.37 1.23 1.37 1.42 1.39 1.49 1.57 1.67
0.38 0.34 0.36 0.39 0.42 0.46 0.52 0.53 0.52 0.60 0.65 0.70 0.86 1.02 1.18 1.19 1.36 1.47 1.44 1.35 1.35 1.50 1.65 1.93 2.07 2.05 2.15 2.26 2.25 2.63 2.76 2.27 1.84 1.93 2.18 1.93 1.72 1.54 1.40 1.45 1.52 1.65 1.85
0.36 0.33 0.32 0.33 0.35 0.36 0.37 0.39 0.42 0.50 0.62 0.76 0.96 1.17 1.36 1.44 1.51 1.43 1.51 1.52 1.44 1.48 1.59 1.75 1.90 1.94 2.07 2.23 2.35 2.68 3.22 2.97 2.34 2.15 2.55 2.31 2.08 1.98 1.68 1.52 1.51 1.57 1.83
0.34 0.39 0.35 0.38 0.36 0.33 0.31 0.34 0.43 0.55 0.74 0.94 1.16 1.39 1.59 1.63 1.52 1.55 1.59 1.48 1.40 1.36 1.45 1.59 1.72 1.85 1.89 2.05 2.15 2.29 2.85 3.25 2.92 2.63 2.34 2.01 1.96 2.13 2.11 1.78 1.60 1.59 1.72
0.34 0.36 0.34 0.38 0.38 0.37 0.38 0.44 0.64 0.86 1.09 1.29 1.54 1.81 1.78 1.67 1.57 1.56 1.56 1.51 1.50 1.46 1.46 1.59 1.67 1.70 1.77 1.89 2.23 2.50 2.79 3.04 3.03 3.02 2.81 2.52 2.23 1.91 2.16 2.20 1.89 1.76 1.71
0.36 0.44 0.50 0.58 0.64 0.66 0.79 0.98 1.24 1.41 1.50 1.61 1.75 1.87 1.81 1.81 1.75 1.57 1.49 1.49 1.54 1.59 1.61 1.66 1.67 1.65 1.70 1.82 2.06 2.37 2.60 2.92 3.13 3.08 2.89 2.75 2.62 2.38 2.30 2.17 2.02 2.03 1.86
0.44 0.57 0.74 0.87 0.99 1.13 1.28 1.43 1.58 1.70 1.65 1.62 1.68 1.73 1.71 1.68 1.65 1.58 1.50 1.45 1.48 1.52 1.54 1.61 1.73 1.82 1.86 1.98 2.16 2.32 2.26 2.46 2.87 2.89 2.75 2.66 2.49 2.44 2.50 2.44 2.13 1.98 1.71
0.61 0.73 0.81 0.93 1.09 1.26 1.34 1.35 1.44 1.54 1.50 1.48 1.47 1.45 1.51 1.51 1.45 1.35 1.33 1.37 1.46 1.46 1.40 1.43 1.53 1.66 1.84 1.90 1.97 2.01 1.98 2.08 2.34 2.45 2.62 2.72 2.49 2.40 2.31 2.29 2.33 2.10 1.80
0.88 1.04 1.14 1.25 1.29 1.34 1.42 1.34 1.33 1.39 1.39 1.34 1.29 1.29 1.32 1.37 1.37 1.28 1.27 1.26 1.26 1.19 1.12 1.12 1.18 1.26 1.34 1.44 1.60 1.70 1.81 1.85 1.98 2.13 2.26 2.42 2.54 2.48 2.30 2.27 2.25 2.20 1.99
1.12 1.41 1.65 1.82 1.64 1.38 1.31 1.30 1.23 1.24 1.33 1.33 1.28 1.23 1.29 1.29 1.27 1.27 1.22 1.21 1.20 1.12 1.04 0.99 0.97 0.97 0.93 0.97 1.16 1.37 1.50 1.58 1.74 1.92 2.06 2.11 2.18 2.36 2.34 2.19 2.18 2.09 1.97
1.26 1.41 1.61 1.79 1.69 1.39 1.16 1.20 1.25 1.24 1.25 1.25 1.26 1.25 1.21 1.11 1.10 1.12 1.10 1.08 1.07 1.11 1.08 0.98 0.93 1.04 1.04 0.98 1.04 1.11 1.18 1.25 1.39 1.53 1.67 1.82 2.07 2.37 2.40 2.34 2.22 2.12 1.99
1.16 1.15 1.21 1.29 1.31 1.17 0.98 0.95 1.11 1.20 1.17 1.16 1.19 1.17 1.07 1.00 0.97 0.96 0.89 0.79 0.75 0.77 0.86 0.95 0.89 0.88 0.92 0.94 1.00 1.02 1.06 1.11 1.22 1.32 1.45 1.62 1.90 2.23 2.44 2.53 2.42 2.26 2.12
1.15 1.12 1.04 0.98 1.00 0.96 0.88 0.85 0.99 1.15 1.20 1.19 1.08 0.98 0.93 0.89 0.89 0.81 0.76 0.71 0.62 0.61 0.64 0.73 0.73 0.82 0.91 0.94 0.98 0.98 1.02 1.05 1.13 1.28 1.34 1.39 1.58 1.77 1.96 2.16 2.30 2.27 2.24
0.84 0.80 0.74 0.70 0.69 0.72 0.75 0.80 0.92 1.01 1.14 1.26 1.17 1.05 0.96 0.91 0.87 0.80 0.76 0.70 0.66 0.67 0.72 0.82 0.85 0.81 0.79 0.84 0.95 1.00 0.96 0.94 0.97 1.06 1.16 1.24 1.28 1.44 1.58 1.69 1.90 2.12 2.35
0.45 0.44 0.44 0.43 0.44 0.44 0.44 0.52 0.67 0.83 1.01 1.25 1.24 1.11 1.06 1.00 0.86 0.78 0.79 0.75 0.76 0.73 0.75 0.84 0.93 0.99 0.94 0.91 0.98 0.95 0.95 0.95 0.92 0.96 0.97 1.03 1.06 1.12 1.30 1.34 1.57 1.91 2.18
0.31 0.31 0.29 0.28 0.25 0.24 0.26 0.27 0.38 0.57 0.73 0.91 1.00 0.98 0.90 0.80 0.76 0.75 0.72 0.67 0.66 0.62 0.60 0.63 0.69 0.77 0.84 1.09 1.03 0.85 0.80 0.85 0.90 0.94 0.93 0.96 0.90 0.88 0.95 1.07 1.20 1.50 1.72
0.25 0.25 0.24 0.24 0.23 0.23 0.23 0.25 0.32 0.39 0.49 0.64 0.75 0.76 0.70 0.63 0.61 0.64 0.61 0.56 0.50 0.51 0.48 0.48 0.48 0.53 0.71 0.82 0.65 0.63 0.66 0.78 0.89 0.96 0.99 0.97 0.90 0.93 0.94 0.96 0.97 1.03 1.21
0.24 0.24 0.24 0.22 0.20 0.20 0.20 0.23 0.25 0.29 0.32 0.40 0.47 0.49 0.49 0.49 0.50 0.51 0.49 0.49 0.46 0.44 0.43 0.47 0.54 0.56 0.60 0.68 0.56 0.52 0.60 0.81 0.93 0.92 0.88 0.96 0.97 0.99 1.05 0.99 1.04 0.99 0.97
0.16 0.15 0.14 0.12 0.11 0.11 0.12 0.14 0.17 0.20 0.20 0.22 0.26 0.28 0.31 0.36 0.42 0.43 0.46 0.55 0.55 0.51 0.51 0.61 0.67 0.62 0.56 0.61 0.59 0.62 0.74 0.88 0.96 0.91 0.92 1.00 1.04 1.17 1.21 1.11 1.16 1.12 1.09
0.09 0.09 0.07 0.07 0.07 0.07 0.08 0.08 0.11 0.13 0.15 0.15 0.16 0.20 0.23 0.28 0.35 0.42 0.43 0.43 0.43 0.47 0.54 0.56 0.52 0.52 0.60 0.67 0.63 0.71 0.87 1.00 1.11 1.07 1.06 1.26 1.22 1.21 1.14 1.09 1.23 1.20 1.06
0.07 0.07 0.06 0.07 0.07 0.07 0.08 0.07 0.08 0.10 0.13 0.16 0.19 0.22 0.25 0.28 0.31 0.30 0.27 0.30 0.34 0.34 0.34 0.35 0.39 0.46 0.61 0.66 0.68 0.86 0.93 1.00 1.15 1.17 1.14 1.09 1.22 1.16 1.08 1.06 1.10 1.24 1.12
0.06 0.06 0.07 0.10 0.09 0.08 0.09 0.10 0.11 0.12 0.15 0.17 0.18 0.20 0.20 0.21 0.21 0.22 0.22 0.22 0.26 0.28 0.30 0.32 0.36 0.42 0.48 0.54 0.60 0.73 0.84 0.92 1.08 1.17 1.07 0.98 1.20 1.15 1.05 0.95 0.97 1.12 1.19
0.07 0.08 0.10 0.15 0.17 0.12 0.11 0.12 0.14 0.16 0.17 0.17 0.18 0.20 0.19 0.20 0.17 0.16 0.20 0.24 0.25 0.27 0.28 0.31 0.37 0.46 0.49 0.49 0.57 0.61 0.68 0.80 0.98 1.04 1.05 1.06 1.08 0.99 0.94 1.03 1.06 1.08 1.11
0.07 0.11 0.15 0.18 0.22 0.19 0.15 0.13 0.14 0.15 0.16 0.15 0.17 0.19 0.19 0.20 0.17 0.16 0.18 0.19 0.21 0.23 0.28 0.33 0.38 0.43 0.48 0.50 0.61 0.71 0.72 0.80 0.86 0.85 0.88 0.92 0.88 0.86 0.89 0.95 1.04 1.10 1.16
0.06 0.10 0.16 0.19 0.19 0.19 0.19 0.17 0.16 0.14 0.14 0.14 0.16 0.17 0.20 0.21 0.18 0.15 0.15 0.17 0.19 0.25 0.31 0.35 0.38 0.37 0.39 0.47 0.60 0.75 0.84 0.96 1.06 1.04 0.90 0.88 0.86 0.84 0.83 0.88 0.92 0.98 0.99
0.06 0.09 0.12 0.14 0.15 0.16 0.18 0.16 0.15 0.14 0.14 0.15 0.15 0.15 0.15 0.16 0.17 0.18 0.15 0.16 0.17 0.22 0.27 0.30 0.33 0.36 0.40 0.41 0.43 0.53 0.71 0.90 1.15 1.37 1.29 1.25 1.16 1.05 0.95 0.89 0.85 0.83 0.84

GEFSMW_prec_meanprecacc_270.txt.gz
Total_Precipitation_Accumulation
0.48 0.45 0.48 0.54 0.56 0.58 0.60 0.59 0.58 0.66 0.70 0.74 0.87 1.09 1.38 1.48 1.57 1.49 1.29 1.23 1.34 1.60 1.86 1.84 1.93 1.99 1.91 1.87 1.87 2.10 2.03 1.75 1.58 1.68 1.54 1.38 1.26 1.42 1.47 1.42 1.52 1.60 1.71
0.38 0.34 0.36 0.40 0.42 0.46 0.52 0.54 0.53 0.61 0.66 0.71 0.86 1.02 1.19 1.20 1.36 1.48 1.45 1.37 1.36 1.51 1.66 1.95 2.09 2.07 2.18 2.29 2.27 2.65 2.77 2.28 1.86 1.95 2.21 1.97 1.76 1.58 1.45 1.48 1.54 1.67 1.88
0.37 0.33 0.32 0.33 0.35 0.37 0.37 0.39 0.43 0.51 0.62 0.77 0.96 1.17 1.37 1.45 1.52 1.44 1.52 1.53 1.45 1.49 1.60 1.76 1.91 1.95 2.09 2.26 2.37 2.71 3.25 3.00 2.36 2.18 2.59 2.36 2.14 2.03 1.72 1.54 1.53 1.58 1.85
0.35 0.39 0.36 0.38 0.36 0.33 0.31 0.34 0.43 0.56 0.75 0.95 1.17 1.40 1.60 1.65 1.54 1.56 1.59 1.48 1.41 1.37 1.47 1.60 1.73 1.85 1.90 2.07 2.17 2.31 2.87 3.28 2.96 2.67 2.37 2.04 1.99 2.18 2.16 1.81 1.61 1.60 1.73
0.35 0.36 0.35 0.38 0.39 0.37 0.38 0.45 0.64 0.86 1.10 1.30 1.55 1.82 1.80 1.69 1.59 1.57 1.56 1.51 1.51 1.47 1.46 1.60 1.68 1.70 1.78 1.91 2.24 2.51 2.81 3.05 3.06 3.05 2.84 2.54 2.26 1.93 2.19 2.24 1.90 1.77 1.72
0.37 0.45 0.50 0.59 0.64 0.66 0.80 0.98 1.24 1.41 1.50 1.61 1.76 1.88 1.82 1.83 1.77 1.57 1.50 1.51 1.56 1.61 1.62 1.66 1.68 1.66 1.71 1.84 2.07 2.37 2.61 2.93 3.16 3.11 2.92 2.78 2.65 2.41 2.33 2.20 2.04 2.04 1.88
0.44 0.59 0.75 0.88 1.00 1.14 1.29 1.43 1.58 1.71 1.65 1.63 1.69 1.74 1.72 1.69 1.66 1.59 1.52 1.47 1.49 1.53 1.56 1.62 1.74 1.82 1.86 1.99 2.17 2.34 2.27 2.47 2.89 2.92 2.78 2.69 2.51 2.45 2.52 2.46 2.15 2.01 1.73
0.61 0.74 0.82 0.94 1.11 1.27 1.35 1.35 1.44 1.54 1.50 1.48 1.48 1.46 1.51 1.52 1.46 1.36 1.34 1.39 1.48 1.47 1.41 1.44 1.54 1.66 1.85 1.92 1.98 2.03 1.99 2.09 2.35 2.47 2.65 2.74 2.51 2.41 2.33 2.31 2.35 2.12 1.82
0.89 1.04 1.15 1.26 1.30 1.35 1.43 1.35 1.34 1.39 1.40 1.35 1.29 1.30 1.32 1.37 1.37 1.29 1.28 1.27 1.27 1.20 1.12 1.12 1.19 1.27 1.35 1.45 1.61 1.71 1.82 1.86 1.99 2.15 2.28 2.44 2.56 2.49 2.32 2.28 2.27 2.23 2.03
1.12 1.42 1.69 1.84 1.66 1.40 1.32 1.31 1.24 1.24 1.34 1.34 1.28 1.24 1.29 1.30 1.28 1.28 1.23 1.22 1.21 1.13 1.05 1.00 0.98 0.98 0.94 0.98 1.17 1.38 1.51 1.60 1.75 1.94 2.08 2.13 2.19 2.38 2.36 2.21 2.20 2.12 2.01
1.26 1.43 1.65 1.81 1.71 1.40 1.18 1.22 1.27 1.26 1.26 1.26 1.27 1.25 1.21 1.12 1.11 1.14 1.12 1.09 1.09 1.13 1.10 1.00 0.95 1.05 1.04 0.99 1.05 1.12 1.19 1.27 1.41 1.55 1.67 1.82 2.07 2.38 2.42 2.37 2.25 2.16 2.04
1.17 1.17 1.24 1.30 1.32 1.18 0.99 0.97 1.13 1.22 1.19 1.17 1.20 1.18 1.07 1.01 0.99 0.97 0.91 0.80 0.77 0.78 0.87 0.96 0.90 0.89 0.93 0.95 1.01 1.03 1.07 1.12 1.23 1.34 1.46 1.62 1.91 2.25 2.46 2.56 2.45 2.29 2.16
1.16 1.14 1.06 0.99 1.01 0.97 0.89 0.86 1.00 1.16 1.21 1.20 1.09 1.00 0.94 0.90 0.90 0.82 0.77 0.73 0.64 0.62 0.65 0.74 0.74 0.83 0.91 0.95 0.99 0.99 1.03 1.06 1.15 1.30 1.36 1.41 1.59 1.79 1.99 2.18 2.33 2.30 2.27
0.86 0.82 0.77 0.71 0.70 0.72 0.76 0.81 0.93 1.01 1.14 1.27 1.18 1.06 0.97 0.92 0.87 0.80 0.77 0.71 0.67 0.68 0.73 0.83 0.86 0.81 0.80 0.84 0.95 1.00 0.98 0.97 0.99 1.07 1.17 1.25 1.30 1.46 1.60 1.71 1.93 2.15 2.38
0.46 0.47 0.48 0.46 0.45 0.44 0.44 0.53 0.68 0.83 1.02 1.25 1.25 1.12 1.07 1.01 0.87 0.79 0.79 0.76 0.78 0.75 0.76 0.85 0.94 0.99 0.95 0.91 0.98 0.96 0.96 0.97 0.94 0.98 0.98 1.05 1.07 1.14 1.32 1.36 1.59 1.93 2.20
0.32 0.32 0.32 0.31 0.27 0.25 0.26 0.28 0.39 0.58 0.73 0.91 1.00 0.99 0.90 0.80 0.77 0.76 0.72 0.69 0.68 0.64 0.61 0.64 0.70 0.78 0.85 1.09 1.04 0.86 0.80 0.86 0.91 0.95 0.95 0.97 0.92 0.89 0.96 1.08 1.21 1.52 1.73
0.27 0.27 0.26 0.27 0.27 0.25 0.24 0.26 0.33 0.41 0.50 0.65 0.75 0.76 0.70 0.64 0.62 0.65 0.62 0.58 0.51 0.52 0.50 0.49 0.49 0.54 0.72 0.83 0.66 0.64 0.66 0.79 0.90 0.97 1.01 0.98 0.91 0.94 0.95 0.97 0.97 1.04 1.22
0.26 0.26 0.25 0.23 0.22 0.22 0.22 0.25 0.28 0.30 0.33 0.40 0.48 0.49 0.49 0.50 0.51 0.51 0.50 0.50 0.46 0.45 0.44 0.50 0.57 0.58 0.61 0.70 0.57 0.53 0.61 0.81 0.93 0.93 0.89 0.97 0.99 1.01 1.06 1.00 1.05 0.99 0.97
0.18 0.17 0.16 0.14 0.13 0.13 0.14 0.16 0.20 0.21 0.21 0.23 0.27 0.29 0.31 0.37 0.43 0.44 0.47 0.56 0.56 0.53 0.52 0.62 0.69 0.64 0.59 0.64 0.62 0.63 0.75 0.88 0.96 0.92 0.93 1.02 1.06 1.19 1.23 1.13 1.17 1.13 1.09
0.10 0.11 0.09 0.09 0.09 0.09 0.10 0.11 0.13 0.15 0.16 0.17 0.18 0.22 0.25 0.29 0.37 0.43 0.44 0.44 0.44 0.48 0.54 0.57 0.53 0.53 0.62 0.71 0.67 0.74 0.88 1.01 1.11 1.07 1.07 1.27 1.23 1.22 1.16 1.11 1.25 1.21 1.07
0.07 0.08 0.08 0.08 0.10 0.10 0.11 0.10 0.10 0.12 0.15 0.18 0.21 0.24 0.27 0.30 0.33 0.32 0.28 0.31 0.35 0.35 0.34 0.36 0.40 0.46 0.62 0.68 0.72 0.90 0.95 1.02 1.17 1.18 1.15 1.10 1.23 1.17 1.09 1.07 1.11 1.25 1.13
0.06 0.06 0.08 0.10 0.09 0.10 0.11 0.12 0.12 0.14 0.17 0.18 0.19 0.21 0.22 0.23 0.25 0.25 0.24 0.24 0.28 0.30 0.32 0.33 0.38 0.43 0.49 0.55 0.62 0.77 0.88 0.95 1.10 1.19 1.09 0.99 1.21 1.15 1.05 0.96 0.98 1.13 1.21
0.08 0.08 0.10 0.15 0.17 0.13 0.13 0.14 0.16 0.18 0.18 0.18 0.18 0.20 0.20 0.22 0.20 0.20 0.23 0.27 0.27 0.29 0.29 0.32 0.39 0.48 0.50 0.50 0.59 0.65 0.73 0.84 1.00 1.06 1.07 1.07 1.10 1.00 0.95 1.03 1.07 1.09 1.12
0.08 0.11 0.16 0.19 0.23 0.20 0.18 0.15 0.15 0.17 0.17 0.16 0.18 0.20 0.20 0.21 0.19 0.19 0.21 0.23 0.24 0.26 0.30 0.35 0.40 0.44 0.49 0.51 0.62 0.73 0.75 0.84 0.90 0.87 0.90 0.94 0.89 0.87 0.90 0.96 1.05 1.10 1.16
0.07 0.10 0.17 0.19 0.20 0.21 0.22 0.20 0.17 0.15 0.15 0.15 0.17 0.17 0.20 0.22 0.19 0.16 0.17 0.20 0.22 0.28 0.35 0.38 0.40 0.40 0.40 0.48 0.61 0.76 0.85 0.98 1.09 1.07 0.92 0.90 0.88 0.85 0.84 0.88 0.93 0.99 1.00
0.08 0.10 0.13 0.16 0.17 0.19 0.21 0.19 0.17 0.15 0.15 0.16 0.17 0.17 0.16 0.16 0.18 0.19 0.17 0.18 0.20 0.26 0.31 0.34 0.36 0.38 0.42 0.42 0.44 0.55 0.72 0.92 1.19 1.42 1.35 1.29 1.18 1.07 0.96 0.90 0.86 0.84 0.85

GEFSMW_prec_meanprecacc_276.txt.gz
Total_Precipitation_Accumulation
0.50 0.47 0.49 0.54 0.56 0.58 0.61 0.60 0.59 0.68 0.71 0.75 0.88 1.10 1.39 1.50 1.60 1.51 1.31 1.24 1.36 1.63 1.88 1.85 1.93 2.00 1.91 1.87 1.88 2.10 2.05 1.77 1.59 1.69 1.55 1.39 1.26 1.43 1.49 1.43 1.54 1.62 1.75
0.41 0.37 0.38 0.41 0.43 0.47 0.53 0.55 0.55 0.63 0.68 0.72 0.87 1.03 1.20 1.20 1.37 1.49 1.45 1.38 1.37 1.53 1.67 1.96 2.10 2.08 2.18 2.29 2.28 2.66 2.78 2.29 1.86 1.95 2.21 1.97 1.77 1.59 1.46 1.50 1.57 1.70 1.92
0.40 0.37 0.35 0.35 0.37 0.38 0.38 0.40 0.45 0.53 0.64 0.78 0.97 1.18 1.38 1.46 1.52 1.44 1.52 1.54 1.45 1.50 1.61 1.77 1.92 1.97 2.10 2.27 2.38 2.72 3.26 3.01 2.36 2.18 2.60 2.37 2.15 2.04 1.74 1.57 1.57 1.62 1.89
0.38 0.43 0.39 0.40 0.38 0.35 0.32 0.35 0.45 0.58 0.78 0.97 1.19 1.43 1.62 1.66 1.55 1.57 1.60 1.49 1.41 1.38 1.47 1.61 1.74 1.86 1.91 2.08 2.18 2.33 2.88 3.28 2.96 2.68 2.38 2.05 2.00 2.20 2.19 1.84 1.64 1.63 1.75
0.37 0.39 0.38 0.40 0.41 0.39 0.39 0.45 0.65 0.88 1.12 1.33 1.58 1.86 1.84 1.72 1.61 1.58 1.58 1.52 1.51 1.47 1.47 1.61 1.69 1.71 1.79 1.91 2.25 2.53 2.82 3.06 3.07 3.06 2.85 2.55 2.27 1.95 2.22 2.26 1.92 1.79 1.74
0.39 0.47 0.53 0.62 0.66 0.68 0.82 1.00 1.25 1.42 1.51 1.63 1.79 1.90 1.84 1.84 1.78 1.59 1.52 1.52 1.57 1.62 1.63 1.67 1.69 1.67 1.72 1.84 2.08 2.38 2.62 2.94 3.17 3.13 2.93 2.79 2.67 2.43 2.35 2.22 2.05 2.06 1.91
0.45 0.60 0.77 0.90 1.03 1.17 1.32 1.45 1.59 1.72 1.67 1.64 1.72 1.76 1.73 1.70 1.67 1.60 1.53 1.49 1.50 1.54 1.57 1.64 1.76 1.83 1.87 2.00 2.18 2.34 2.28 2.48 2.90 2.93 2.79 2.71 2.54 2.48 2.55 2.48 2.16 2.03 1.75
0.63 0.76 0.85 0.96 1.13 1.31 1.38 1.38 1.46 1.56 1.52 1.50 1.50 1.48 1.53 1.52 1.47 1.37 1.34 1.40 1.49 1.48 1.42 1.45 1.55 1.67 1.86 1.92 1.99 2.04 2.00 2.10 2.36 2.48 2.66 2.76 2.54 2.43 2.35 2.33 2.38 2.14 1.84
0.91 1.07 1.18 1.29 1.33 1.39 1.47 1.38 1.36 1.41 1.42 1.37 1.31 1.33 1.33 1.38 1.38 1.29 1.28 1.27 1.27 1.21 1.13 1.13 1.21 1.28 1.36 1.46 1.61 1.72 1.83 1.88 2.01 2.16 2.29 2.45 2.57 2.51 2.33 2.30 2.30 2.26 2.06
1.15 1.45 1.73 1.89 1.69 1.44 1.37 1.36 1.28 1.28 1.37 1.37 1.30 1.27 1.31 1.31 1.29 1.29 1.24 1.23 1.22 1.14 1.06 1.01 0.99 0.98 0.94 0.98 1.17 1.39 1.51 1.61 1.77 1.95 2.09 2.14 2.21 2.39 2.38 2.23 2.24 2.16 2.04
1.28 1.45 1.68 1.86 1.75 1.43 1.22 1.27 1.32 1.30 1.30 1.29 1.30 1.28 1.23 1.13 1.12 1.15 1.14 1.10 1.10 1.14 1.11 1.01 0.96 1.05 1.04 0.99 1.05 1.12 1.20 1.28 1.43 1.56 1.70 1.85 2.09 2.39 2.44 2.39 2.28 2.19 2.07
1.19 1.19 1.26 1.33 1.37 1.22 1.02 1.00 1.16 1.25 1.23 1.20 1.23 1.20 1.09 1.01 1.00 0.98 0.92 0.82 0.78 0.79 0.88 0.98 0.91 0.90 0.93 0.95 1.01 1.03 1.08 1.13 1.24 1.35 1.48 1.65 1.93 2.27 2.48 2.57 2.45 2.31 2.18
1.20 1.17 1.09 1.02 1.04 1.00 0.91 0.88 1.03 1.19 1.24 1.22 1.12 1.02 0.96 0.92 0.92 0.83 0.78 0.75 0.65 0.62 0.66 0.75 0.75 0.84 0.92 0.95 0.99 0.99 1.03 1.07 1.16 1.31 1.37 1.42 1.62 1.81 2.01 2.20 2.34 2.31 2.28
0.91 0.87 0.83 0.76 0.72 0.74 0.77 0.83 0.95 1.04 1.17 1.29 1.20 1.08 1.00 0.95 0.90 0.82 0.79 0.73 0.68 0.69 0.73 0.84 0.87 0.82 0.80 0.85 0.96 1.00 0.98 0.97 1.00 1.08 1.18 1.26 1.31 1.48 1.63 1.73 1.95 2.16 2.39
0.52 0.53 0.57 0.55 0.49 0.46 0.46 0.55 0.70 0.86 1.04 1.28 1.28 1.15 1.09 1.04 0.90 0.81 0.81 0.78 0.79 0.76 0.77 0.86 0.95 1.00 0.95 0.91 0.99 0.96 0.96 0.97 0.95 0.99 0.99 1.06 1.09 1.16 1.34 1.38 1.61 1.95 2.22
0.36 0.38 0.39 0.44 0.36 0.29 0.29 0.30 0.41 0.61 0.76 0.94 1.03 1.02 0.93 0.83 0.80 0.79 0.75 0.70 0.69 0.65 0.62 0.65 0.71 0.79 0.85 1.10 1.04 0.86 0.81 0.86 0.92 0.96 0.96 0.98 0.93 0.91 0.98 1.11 1.23 1.53 1.75
0.29 0.31 0.32 0.35 0.35 0.32 0.28 0.29 0.35 0.44 0.53 0.67 0.77 0.79 0.73 0.66 0.65 0.68 0.65 0.60 0.53 0.54 0.51 0.50 0.49 0.55 0.73 0.84 0.68 0.65 0.68 0.80 0.91 0.98 1.02 0.99 0.92 0.96 0.97 0.99 0.99 1.05 1.23
0.28 0.28 0.29 0.28 0.27 0.28 0.28 0.29 0.30 0.32 0.36 0.43 0.49 0.51 0.51 0.52 0.53 0.53 0.53 0.53 0.49 0.47 0.46 0.51 0.58 0.59 0.62 0.71 0.58 0.55 0.62 0.83 0.95 0.94 0.90 0.98 1.00 1.02 1.08 1.01 1.06 1.00 0.98
0.19 0.18 0.18 0.16 0.16 0.17 0.19 0.21 0.24 0.25 0.24 0.26 0.29 0.31 0.34 0.39 0.46 0.47 0.49 0.58 0.59 0.55 0.53 0.63 0.70 0.65 0.60 0.66 0.63 0.65 0.76 0.90 0.98 0.93 0.94 1.03 1.07 1.21 1.24 1.14 1.19 1.14 1.11
0.11 0.12 0.10 0.09 0.10 0.12 0.14 0.15 0.18 0.21 0.21 0.22 0.22 0.25 0.27 0.31 0.39 0.45 0.46 0.46 0.47 0.51 0.56 0.58 0.55 0.55 0.62 0.72 0.68 0.75 0.89 1.03 1.13 1.08 1.08 1.29 1.24 1.23 1.17 1.11 1.26 1.22 1.08
0.08 0.09 0.09 0.09 0.11 0.12 0.14 0.15 0.17 0.18 0.20 0.24 0.26 0.27 0.29 0.31 0.35 0.33 0.29 0.33 0.38 0.37 0.37 0.38 0.42 0.48 0.63 0.69 0.73 0.90 0.96 1.03 1.19 1.20 1.16 1.12 1.26 1.19 1.10 1.08 1.12 1.25 1.14
0.07 0.07 0.08 0.11 0.10 0.11 0.13 0.16 0.20 0.19 0.21 0.23 0.23 0.23 0.24 0.25 0.26 0.27 0.25 0.26 0.31 0.33 0.34 0.37 0.41 0.46 0.51 0.57 0.64 0.78 0.89 0.96 1.13 1.22 1.10 0.99 1.22 1.17 1.07 0.98 0.99 1.14 1.21
0.08 0.09 0.11 0.16 0.19 0.15 0.15 0.18 0.22 0.24 0.21 0.21 0.21 0.22 0.22 0.23 0.22 0.22 0.26 0.29 0.31 0.33 0.33 0.35 0.41 0.50 0.52 0.52 0.61 0.66 0.74 0.85 1.02 1.09 1.10 1.09 1.11 1.02 0.97 1.06 1.08 1.10 1.13
0.08 0.11 0.16 0.20 0.24 0.21 0.20 0.21 0.23 0.23 0.21 0.20 0.20 0.21 0.21 0.22 0.20 0.20 0.23 0.25 0.27 0.28 0.33 0.38 0.42 0.47 0.51 0.53 0.64 0.75 0.77 0.86 0.92 0.91 0.95 0.96 0.91 0.89 0.93 0.99 1.08 1.12 1.17
0.07 0.11 0.18 0.20 0.21 0.22 0.24 0.27 0.25 0.21 0.20 0.19 0.20 0.18 0.21 0.23 0.20 0.17 0.18 0.21 0.24 0.31 0.37 0.41 0.44 0.44 0.44 0.50 0.63 0.78 0.87 1.00 1.12 1.12 0.97 0.93 0.90 0.88 0.87 0.91 0.96 1.01 1.01
0.09 0.11 0.13 0.16 0.18 0.19 0.22 0.24 0.25 0.21 0.18 0.19 0.20 0.19 0.18 0.18 0.19 0.21 0.19 0.20 0.23 0.29 0.34 0.38 0.41 0.43 0.47 0.47 0.47 0.57 0.74 0.94 1.22 1.46 1.39 1.33 1.21 1.09 0.99 0.94 0.90 0.87 0.87

GEFSMW_prec_meanprecacc_282.txt.gz
Total_Precipitation_Accumulation
0.53 0.51 0.53 0.58 0.58 0.60 0.62 0.62 0.60 0.68 0.72 0.76 0.89 1.12 1.41 1.51 1.61 1.53 1.32 1.26 1.37 1.65 1.89 1.86 1.94 2.00 1.92 1.89 1.89 2.11 2.05 1.77 1.59 1.70 1.55 1.39 1.27 1.43 1.50 1.44 1.54 1.63 1.76
0.43 0.39 0.41 0.44 0.45 0.49 0.54 0.57 0.56 0.64 0.69 0.74 0.90 1.07 1.24 1.23 1.39 1.50 1.46 1.39 1.39 1.54 1.69 1.98 2.11 2.09 2.20 2.31 2.30 2.67 2.79 2.29 1.86 1.97 2.22 1.97 1.77 1.60 1.47 1.52 1.58 1.71 1.95
0.42 0.39 0.37 0.37 0.38 0.39 0.39 0.42 0.46 0.53 0.65 0.79 1.01 1.23 1.43 1.49 1.53 1.45 1.52 1.55 1.46 1.52 1.63 1.79 1.94 1.98 2.11 2.28 2.39 2.73 3.27 3.02 2.36 2.18 2.60 2.37 2.15 2.05 1.74 1.58 1.57 1.64 1.92
0.40 0.45 0.41 0.41 0.39 0.36 0.33 0.36 0.45 0.59 0.79 0.99 1.21 1.46 1.66 1.69 1.56 1.57 1.61 1.49 1.42 1.39 1.50 1.63 1.75 1.88 1.92 2.09 2.19 2.34 2.90 3.30 2.97 2.69 2.38 2.06 2.01 2.20 2.20 1.85 1.65 1.65 1.78
0.38 0.41 0.39 0.42 0.42 0.40 0.41 0.46 0.66 0.88 1.13 1.34 1.60 1.89 1.87 1.74 1.63 1.60 1.58 1.52 1.52 1.48 1.48 1.63 1.71 1.72 1.79 1.92 2.25 2.54 2.83 3.08 3.09 3.07 2.86 2.56 2.28 1.96 2.22 2.27 1.93 1.81 1.78
0.40 0.48 0.54 0.63 0.68 0.69 0.83 1.01 1.27 1.44 1.53 1.65 1.80 1.92 1.87 1.86 1.79 1.60 1.53 1.53 1.57 1.62 1.63 1.68 1.71 1.68 1.73 1.85 2.08 2.39 2.62 2.96 3.19 3.14 2.94 2.81 2.68 2.44 2.36 2.23 2.06 2.07 1.94
0.46 0.60 0.78 0.91 1.04 1.19 1.33 1.46 1.60 1.74 1.68 1.66 1.74 1.78 1.75 1.72 1.69 1.61 1.54 1.49 1.51 1.55 1.58 1.65 1.77 1.85 1.89 2.01 2.19 2.34 2.28 2.49 2.91 2.95 2.81 2.73 2.56 2.49 2.56 2.49 2.17 2.04 1.78
0.63 0.76 0.85 0.97 1.15 1.32 1.39 1.39 1.47 1.58 1.55 1.52 1.52 1.51 1.55 1.54 1.48 1.38 1.35 1.40 1.49 1.48 1.43 1.46 1.57 1.69 1.88 1.94 2.01 2.06 2.01 2.12 2.38 2.49 2.67 2.78 2.56 2.45 2.36 2.35 2.39 2.16 1.88
0.91 1.07 1.19 1.30 1.34 1.40 1.48 1.39 1.37 1.43 1.45 1.41 1.34 1.36 1.37 1.40 1.40 1.31 1.29 1.28 1.28 1.21 1.14 1.14 1.22 1.29 1.38 1.47 1.63 1.73 1.84 1.90 2.03 2.17 2.30 2.47 2.59 2.52 2.35 2.33 2.32 2.29 2.10
1.15 1.45 1.73 1.89 1.70 1.45 1.39 1.38 1.30 1.31 1.42 1.42 1.35 1.31 1.36 1.36 1.33 1.33 1.27 1.25 1.24 1.15 1.06 1.01 1.00 0.99 0.95 0.99 1.18 1.39 1.52 1.62 1.79 1.97 2.11 2.16 2.23 2.41 2.41 2.28 2.28 2.21 2.08
1.28 1.45 1.69 1.88 1.78 1.46 1.24 1.29 1.34 1.34 1.36 1.36 1.37 1.34 1.28 1.17 1.15 1.18 1.17 1.13 1.12 1.16 1.12 1.02 0.97 1.06 1.05 0.99 1.06 1.13 1.20 1.28 1.44 1.58 1.71 1.87 2.12 2.42 2.47 2.43 2.33 2.25 2.12
1.19 1.19 1.27 1.35 1.41 1.27 1.07 1.04 1.20 1.29 1.27 1.25 1.29 1.27 1.15 1.06 1.03 1.01 0.95 0.84 0.79 0.80 0.90 0.99 0.93 0.91 0.94 0.95 1.01 1.04 1.08 1.13 1.25 1.37 1.49 1.67 1.96 2.30 2.51 2.60 2.49 2.36 2.23
1.20 1.18 1.10 1.04 1.07 1.04 0.97 0.94 1.08 1.23 1.28 1.26 1.15 1.05 0.99 0.95 0.96 0.87 0.82 0.78 0.67 0.64 0.68 0.77 0.76 0.84 0.93 0.96 0.99 1.00 1.04 1.08 1.17 1.32 1.38 1.44 1.64 1.83 2.03 2.23 2.37 2.34 2.32
0.91 0.88 0.84 0.78 0.75 0.78 0.82 0.88 1.01 1.10 1.22 1.34 1.24 1.11 1.02 0.97 0.93 0.86 0.83 0.77 0.72 0.72 0.75 0.85 0.88 0.82 0.81 0.86 0.97 1.01 0.98 0.98 1.01 1.09 1.18 1.27 1.33 1.50 1.64 1.75 1.97 2.18 2.41
0.52 0.55 0.59 0.58 0.51 0.50 0.51 0.60 0.75 0.91 1.10 1.33 1.32 1.17 1.12 1.06 0.92 0.85 0.85 0.82 0.83 0.80 0.80 0.88 0.97 1.02 0.97 0.93 1.00 0.97 0.97 0.98 0.96 1.00 1.00 1.07 1.11 1.18 1.35 1.39 1.63 1.95 2.23
0.36 0.39 0.41 0.46 0.39 0.32 0.33 0.35 0.46 0.66 0.81 1.01 1.08 1.05 0.96 0.86 0.83 0.83 0.79 0.74 0.73 0.70 0.67 0.69 0.74 0.82 0.88 1.13 1.07 0.88 0.83 0.88 0.93 0.97 0.97 1.00 0.96 0.93 1.00 1.12 1.24 1.54 1.76
0.30 0.32 0.34 0.39 0.39 0.36 0.33 0.34 0.40 0.48 0.59 0.74 0.85 0.83 0.77 0.70 0.69 0.72 0.69 0.63 0.56 0.57 0.54 0.53 0.52 0.58 0.75 0.88 0.71 0.68 0.70 0.82 0.93 1.00 1.04 1.01 0.94 0.97 0.99 1.00 1.00 1.06 1.24
0.29 0.29 0.31 0.32 0.31 0.33 0.33 0.34 0.35 0.37 0.41 0.49 0.55 0.56 0.55 0.55 0.56 0.56 0.56 0.58 0.53 0.50 0.48 0.53 0.60 0.61 0.65 0.73 0.60 0.57 0.65 0.84 0.96 0.96 0.93 1.00 1.02 1.05 1.11 1.05 1.08 1.02 1.00
0.20 0.19 0.19 0.19 0.20 0.21 0.24 0.26 0.30 0.30 0.29 0.31 0.34 0.36 0.38 0.42 0.48 0.49 0.52 0.62 0.62 0.57 0.55 0.65 0.72 0.67 0.62 0.68 0.65 0.67 0.78 0.91 1.00 0.95 0.96 1.04 1.08 1.23 1.27 1.18 1.22 1.17 1.14
0.11 0.12 0.11 0.11 0.13 0.15 0.17 0.20 0.23 0.26 0.26 0.27 0.27 0.31 0.32 0.34 0.40 0.47 0.48 0.48 0.48 0.52 0.58 0.60 0.56 0.56 0.64 0.74 0.69 0.77 0.91 1.04 1.14 1.10 1.10 1.30 1.25 1.25 1.18 1.13 1.28 1.25 1.12
0.08 0.09 0.10 0.10 0.12 0.15 0.17 0.18 0.22 0.25 0.25 0.30 0.32 0.33 0.33 0.34 0.37 0.35 0.31 0.33 0.39 0.38 0.38 0.39 0.44 0.49 0.64 0.70 0.74 0.92 0.98 1.04 1.20 1.21 1.17 1.13 1.27 1.21 1.12 1.09 1.13 1.27 1.17
0.08 0.07 0.09 0.12 0.12 0.13 0.16 0.19 0.23 0.25 0.26 0.27 0.28 0.27 0.26 0.27 0.28 0.29 0.26 0.27 0.32 0.34 0.35 0.37 0.42 0.47 0.52 0.58 0.65 0.80 0.91 0.98 1.15 1.23 1.11 1.01 1.23 1.18 1.09 0.99 1.01 1.16 1.24
0.09 0.09 0.11 0.17 0.20 0.16 0.17 0.20 0.25 0.29 0.27 0.26 0.25 0.25 0.24 0.25 0.24 0.23 0.26 0.30 0.31 0.34 0.34 0.36 0.42 0.51 0.53 0.53 0.62 0.68 0.75 0.87 1.04 1.11 1.12 1.11 1.13 1.04 0.99 1.07 1.10 1.13 1.15
0.09 0.12 0.16 0.20 0.24 0.22 0.21 0.22 0.25 0.27 0.27 0.25 0.24 0.23 0.22 0.24 0.21 0.22 0.24 0.26 0.28 0.29 0.34 0.39 0.44 0.48 0.51 0.53 0.65 0.76 0.78 0.87 0.93 0.93 0.98 0.99 0.95 0.92 0.94 1.00 1.10 1.14 1.19
0.08 0.11 0.18 0.21 0.21 0.22 0.25 0.28 0.27 0.25 0.25 0.24 0.24 0.21 0.22 0.24 0.21 0.19 0.20 0.23 0.26 0.33 0.39 0.42 0.46 0.46 0.45 0.52 0.65 0.79 0.89 1.02 1.14 1.16 1.02 0.96 0.92 0.89 0.88 0.92 0.98 1.04 1.05
0.10 0.13 0.14 0.17 0.18 0.20 0.23 0.25 0.26 0.23 0.22 0.24 0.24 0.22 0.19 0.19 0.20 0.21 0.20 0.22 0.25 0.33 0.38 0.41 0.43 0.45 0.51 0.51 0.51 0.60 0.77 0.97 1.27 1.52 1.45 1.37 1.23 1.11 0.99 0.94 0.90 0.88 0.91